| time (UTC) | temp F | wind direction | speed MPH | gust MPH | rain 1hr in | rain 24hr in | rain mn in | humidity % | barometer mb |
| 20260906120121 | 70 | 50 | 3.0 | 5.0 | 0.00 | 0.00 | 0.00 | 99 | 1018.1 |
| 20260906115122 | 70 | 14 | 3.0 | 4.0 | 0.00 | 0.00 | 0.00 | 99 | 1018.1 |
| 20260906114122 | 70 | 11 | 3.0 | 6.0 | 0.00 | 0.00 | 0.00 | 99 | 1017.9 |
| 20260906113122 | 70 | 55 | 4.0 | 6.0 | 0.00 | 0.00 | 0.00 | 99 | 1017.5 |
| 20260906112121 | 70 | 45 | 3.0 | 5.0 | 0.00 | 0.00 | 0.00 | 99 | 1017.4 |
| 20260906111121 | 70 | 14 | 3.0 | 6.0 | 0.00 | 0.00 | 0.00 | 99 | 1017.4 |
| 20260906110121 | 70 | 359 | 3.0 | 4.0 | 0.00 | 0.00 | 0.00 | 99 | 1017.4 |
| 20260906105142 | 70 | 4 | 3.0 | 5.0 | 0.00 | 0.00 | 0.00 | 99 | 1017.2 |
| 20260906104121 | 70 | 357 | 3.0 | 5.0 | 0.00 | 0.00 | 0.00 | 99 | 1017.2 |
| 20260906103122 | 70 | 355 | 3.0 | 5.0 | 0.00 | 0.00 | 0.00 | 99 | 1017.1 |
| 20260906102122 | 70 | 1 | 3.0 | 4.0 | 0.00 | 0.00 | 0.00 | 99 | 1017.0 |
| 20260906101142 | 70 | 9 | 3.0 | 6.0 | 0.00 | 0.00 | 0.00 | 99 | 1016.9 |
| 20260906100121 | 70 | 333 | 2.0 | 4.0 | 0.00 | 0.00 | 0.00 | 99 | 1016.9 |
| 20260906095121 | 70 | 342 | 3.0 | 4.0 | 0.00 | 0.00 | 0.00 | 99 | 1016.9 |
| 20260906094121 | 70 | 338 | 3.0 | 4.0 | 0.00 | 0.00 | 0.00 | 99 | 1017.0 |
| 20260906093121 | 70 | 6 | 3.0 | 4.0 | 0.00 | 0.00 | 0.00 | 99 | 1016.9 |
| 20260906092121 | 70 | 312 | 3.0 | 4.0 | 0.00 | 0.00 | 0.00 | 99 | 1016.9 |
| 20260906091122 | 70 | 331 | 2.0 | 3.0 | 0.00 | 0.00 | 0.00 | 99 | 1016.8 |
| 20260906090122 | 70 | 325 | 2.0 | 4.0 | 0.00 | 0.00 | 0.00 | 99 | 1016.8 |
| 20260906085121 | 70 | 360 | 2.0 | 4.0 | 0.00 | 0.00 | 0.00 | 99 | 1016.8 |
| 20260906084121 | 70 | 348 | 2.0 | 4.0 | 0.00 | 0.00 | 0.00 | 99 | 1017.1 |
| 20260906083121 | 70 | 343 | 3.0 | 5.0 | 0.00 | 0.00 | 0.00 | 99 | 1017.1 |
| 20260906082142 | 70 | 350 | 3.0 | 4.0 | 0.00 | 0.00 | 0.00 | 99 | 1017.3 |
| 20260906081142 | 70 | 359 | 3.0 | 4.0 | 0.00 | 0.00 | 0.00 | 99 | 1017.1 |
| 20260906080142 | 70 | 357 | 3.0 | 4.0 | 0.00 | 0.00 | 0.00 | 99 | 1017.0 |
| 20260906075121 | 70 | 357 | 3.0 | 4.0 | 0.00 | 0.00 | 0.00 | 99 | 1017.0 |
| 20260906074121 | 70 | 318 | 2.0 | 4.0 | 0.00 | 0.00 | 0.00 | 99 | 1017.2 |
| 20260906073142 | 70 | 324 | 1.0 | 3.0 | 0.00 | 0.00 | 0.00 | 99 | 1017.3 |
| 20260906072122 | 70 | 293 | 0.0 | 0.0 | 0.00 | 0.00 | 0.00 | 99 | 1017.4 |
| 20260906071121 | 69 | 293 | 0.0 | 0.0 | 0.00 | 0.00 | 0.00 | 99 | 1017.3 |
| 20260906070121 | 69 | 315 | 0.0 | 0.0 | 0.00 | 0.00 | 0.00 | 99 | 1017.2 |
| 20260906065121 | 69 | 343 | 0.0 | 3.0 | 0.00 | 0.00 | 0.00 | 99 | 1017.2 |
| 20260906064121 | 69 | 353 | 2.0 | 3.0 | 0.00 | 0.00 | 0.00 | 99 | 1017.2 |
| 20260906063122 | 69 | 5 | 1.0 | 3.0 | 0.00 | 0.00 | 0.00 | 99 | 1017.3 |
| 20260906062142 | 69 | 56 | 2.0 | 4.0 | 0.00 | 0.00 | 0.00 | 99 | 1017.6 |
| 20260906061121 | 69 | 43 | 2.0 | 4.0 | 0.00 | 0.00 | 0.00 | 99 | 1017.4 |
| 20260906060121 | 69 | 39 | 2.0 | 5.0 | 0.00 | 0.00 | 0.00 | 99 | 1017.5 |
| 20260906055121 | 69 | 55 | 3.0 | 6.0 | 0.00 | 0.00 | 0.00 | 99 | 1017.4 |
| 20260906054122 | 70 | 342 | 2.0 | 3.0 | 0.00 | 0.00 | 0.00 | 99 | 1017.4 |
| 20260906053121 | 70 | 339 | 2.0 | 4.0 | 0.00 | 0.00 | 0.00 | 99 | 1017.5 |
| 20260906052121 | 70 | 328 | 3.0 | 4.0 | 0.00 | 0.00 | 0.00 | 99 | 1017.4 |
| 20260906051121 | 70 | 346 | 3.0 | 5.0 | 0.00 | 0.00 | 0.00 | 99 | 1017.2 |
| 20260906050142 | 70 | 348 | 3.0 | 5.0 | 0.00 | 0.00 | 0.00 | 99 | 1016.9 |
| 20260906045142 | 70 | 355 | 3.0 | 5.0 | 0.00 | 0.00 | 0.00 | 99 | 1016.9 |
| 20260906044121 | 70 | 46 | 3.0 | 6.0 | 0.00 | 0.00 | 0.00 | 99 | 1016.7 |
| 20260906043142 | 70 | 45 | 2.0 | 4.0 | 0.00 | 0.00 | 0.00 | 99 | 1016.5 |
| 20260906042121 | 70 | 55 | 2.0 | 4.0 | 0.00 | 0.00 | 0.00 | 99 | 1016.4 |
| 20260906041142 | 70 | 96 | 2.0 | 4.0 | 0.00 | 0.00 | 0.00 | 99 | 1016.3 |
| 20260906040121 | 71 | 53 | 3.0 | 5.0 | 0.00 | 0.00 | 0.00 | 99 | 1016.2 |
| 20260906035143 | 71 | 40 | 2.0 | 4.0 | 0.00 | 0.00 | 0.00 | 99 | 1016.2 |
| 20260906034121 | 71 | 40 | 3.0 | 5.0 | 0.00 | 0.00 | 0.00 | 99 | 1016.2 |
| 20260906033121 | 71 | 56 | 3.0 | 4.0 | 0.00 | 0.00 | 0.00 | 99 | 1016.0 |
| 20260906032121 | 71 | 36 | 3.0 | 5.0 | 0.00 | 0.00 | 0.00 | 99 | 1015.9 |
| 20260906031122 | 71 | 68 | 2.0 | 3.0 | 0.00 | 0.00 | 0.00 | 99 | 1016.0 |
| 20260906030122 | 71 | 270 | 0.0 | 0.0 | 0.00 | 0.00 | 0.00 | 99 | 1016.0 |
| 20260906025121 | 72 | 36 | 1.0 | 2.0 | 0.00 | 0.00 | 0.00 | 99 | 1016.0 |
| 20260906024121 | 72 | 16 | 0.0 | 2.0 | 0.00 | 0.00 | 0.00 | 99 | 1015.9 |
| 20260906023122 | 73 | 44 | 1.0 | 2.0 | 0.00 | 0.00 | 0.00 | 99 | 1015.8 |
| 20260906022121 | 73 | 50 | 2.0 | 5.0 | 0.00 | 0.00 | 0.00 | 99 | 1015.6 |
| 20260906021121 | 74 | 10 | 2.0 | 3.0 | 0.00 | 0.00 | 0.00 | 99 | 1015.7 |
| 20260906020121 | 74 | 37 | 0.0 | 2.0 | 0.00 | 0.00 | 0.00 | 98 | 1015.7 |
| 20260906015121 | 75 | 8 | 1.0 | 3.0 | 0.00 | 0.00 | 0.00 | 98 | 1015.6 |
| 20260906014122 | 75 | 339 | 2.0 | 3.0 | 0.00 | 0.00 | 0.00 | 97 | 1015.6 |
| 20260906013121 | 76 | 3 | 2.0 | 3.0 | 0.00 | 0.00 | 0.00 | 96 | 1015.2 |
| 20260906012122 | 76 | 337 | 3.0 | 4.0 | 0.00 | 0.00 | 0.00 | 95 | 1015.2 |
| 20260906011142 | 77 | 346 | 4.0 | 5.0 | 0.00 | 0.00 | 0.00 | 94 | 1015.1 |
| 20260906010122 | 77 | 346 | 4.0 | 6.0 | 0.00 | 0.00 | 0.00 | 93 | 1015.1 |
| 20260906005122 | 78 | 344 | 4.0 | 6.0 | 0.00 | 0.00 | 0.00 | 91 | 1015.1 |
| 20260906004121 | 79 | 310 | 5.0 | 8.0 | 0.00 | 0.00 | 0.00 | 90 | 1015.0 |
| 20260906003121 | 79 | 339 | 4.0 | 6.0 | 0.00 | 0.00 | 0.00 | 90 | 1014.8 |
| 20260906002121 | 80 | 328 | 4.0 | 6.0 | 0.00 | 0.00 | 0.00 | 89 | 1014.7 |
| 20260906001122 | 81 | 349 | 4.0 | 7.0 | 0.00 | 0.00 | 0.00 | 87 | 1014.7 |
| 20260906000143 | 82 | 332 | 3.0 | 4.0 | 0.00 | 0.00 | 0.00 | 86 | 1014.6 |
| 20260905235122 | 83 | 327 | 3.0 | 5.0 | 0.00 | 0.00 | 0.00 | 84 | 1014.6 |
| 20260905234121 | 84 | 342 | 3.0 | 5.0 | 0.00 | 0.00 | 0.00 | 84 | 1014.6 |
| 20260905233121 | 84 | 350 | 4.0 | 7.0 | 0.00 | 0.00 | 0.00 | 83 | 1014.5 |
| 20260905232121 | 85 | 322 | 4.0 | 7.0 | 0.00 | 0.00 | 0.00 | 84 | 1014.2 |
| 20260905231142 | 86 | 3 | 4.0 | 6.0 | 0.00 | 0.00 | 0.00 | 83 | 1014.1 |
| 20260905230121 | 87 | 12 | 4.0 | 6.0 | 0.00 | 0.00 | 0.00 | 81 | 1014.3 |
| 20260905225121 | 87 | 338 | 5.0 | 8.0 | 0.00 | 0.00 | 0.00 | 81 | 1014.3 |
| 20260905224121 | 88 | 342 | 4.0 | 6.0 | 0.00 | 0.00 | 0.00 | 80 | 1014.2 |
| 20260905223121 | 89 | 328 | 4.0 | 7.0 | 0.00 | 0.00 | 0.00 | 77 | 1014.2 |
| 20260905222121 | 90 | 329 | 4.0 | 6.0 | 0.00 | 0.00 | 0.00 | 76 | 1014.2 |
| 20260905221122 | 91 | 346 | 4.0 | 6.0 | 0.00 | 0.00 | 0.00 | 74 | 1014.0 |
| 20260905220121 | 90 | 326 | 4.0 | 7.0 | 0.00 | 0.00 | 0.00 | 75 | 1013.9 |
| 20260905215143 | 91 | 322 | 4.0 | 7.0 | 0.00 | 0.00 | 0.00 | 72 | 1014.0 |
| 20260905214121 | 91 | 341 | 4.0 | 6.0 | 0.00 | 0.00 | 0.00 | 72 | 1014.0 |
| 20260905213122 | 92 | 325 | 4.0 | 6.0 | 0.00 | 0.00 | 0.00 | 72 | 1013.9 |
| 20260905212122 | 92 | 339 | 4.0 | 6.0 | 0.00 | 0.00 | 0.00 | 70 | 1013.9 |
| 20260905211121 | 91 | 358 | 3.0 | 6.0 | 0.00 | 0.00 | 0.00 | 74 | 1013.9 |
| 20260905210122 | 92 | 356 | 3.0 | 5.0 | 0.00 | 0.00 | 0.00 | 74 | 1014.0 |
| 20260905205122 | 90 | 332 | 4.0 | 6.0 | 0.00 | 0.00 | 0.00 | 76 | 1014.0 |
| 20260905204121 | 92 | 336 | 4.0 | 6.0 | 0.00 | 0.00 | 0.00 | 72 | 1014.1 |
| 20260905203121 | 90 | 352 | 4.0 | 7.0 | 0.00 | 0.00 | 0.00 | 76 | 1014.3 |
| 20260905202142 | 91 | 329 | 3.0 | 7.0 | 0.00 | 0.00 | 0.00 | 73 | 1014.1 |
| 20260905201121 | 92 | 315 | 3.0 | 6.0 | 0.00 | 0.00 | 0.00 | 72 | 1014.3 |
| 20260905200122 | 90 | 347 | 3.0 | 5.0 | 0.00 | 0.00 | 0.00 | 76 | 1014.5 |
| 20260905195122 | 90 | 343 | 3.0 | 6.0 | 0.00 | 0.00 | 0.00 | 74 | 1014.3 |
| 20260905194122 | 92 | 321 | 3.0 | 4.0 | 0.00 | 0.00 | 0.00 | 73 | 1014.3 |
| 20260905193122 | 90 | 344 | 3.0 | 6.0 | 0.00 | 0.00 | 0.00 | 78 | 1014.5 |
| 20260905192122 | 93 | 342 | 2.0 | 5.0 | 0.00 | 0.00 | 0.00 | 72 | 1014.4 |
| 20260905191121 | 91 | 320 | 3.0 | 5.0 | 0.00 | 0.00 | 0.00 | 77 | 1014.7 |
| 20260905190122 | 92 | 352 | 3.0 | 5.0 | 0.00 | 0.00 | 0.00 | 76 | 1014.6 |
| 20260905185122 | 91 | 335 | 3.0 | 5.0 | 0.00 | 0.00 | 0.00 | 74 | 1014.6 |
| 20260905184122 | 93 | 352 | 3.0 | 6.0 | 0.00 | 0.00 | 0.00 | 73 | 1014.8 |
| 20260905183122 | 93 | 354 | 4.0 | 6.0 | 0.00 | 0.00 | 0.00 | 71 | 1014.8 |
| 20260905182121 | 92 | 341 | 3.0 | 6.0 | 0.00 | 0.00 | 0.00 | 74 | 1014.8 |
| 20260905181122 | 94 | 327 | 3.0 | 5.0 | 0.00 | 0.00 | 0.00 | 72 | 1014.9 |
| 20260905180122 | 93 | 339 | 3.0 | 6.0 | 0.00 | 0.00 | 0.00 | 71 | 1014.9 |
| 20260905175122 | 93 | 324 | 3.0 | 7.0 | 0.00 | 0.00 | 0.00 | 71 | 1014.9 |
| 20260905174122 | 92 | 9 | 3.0 | 5.0 | 0.00 | 0.00 | 0.00 | 74 | 1015.1 |
| 20260905173122 | 92 | 328 | 3.0 | 5.0 | 0.00 | 0.00 | 0.00 | 75 | 1015.1 |
| 20260905172122 | 91 | 326 | 4.0 | 5.0 | 0.00 | 0.00 | 0.00 | 72 | 1015.2 |
| 20260905171122 | 92 | 318 | 3.0 | 5.0 | 0.00 | 0.00 | 0.00 | 74 | 1015.2 |
| 20260905170122 | 91 | 320 | 3.0 | 5.0 | 0.00 | 0.00 | 0.00 | 76 | 1015.3 |
| 20260905165121 | 91 | 334 | 3.0 | 5.0 | 0.00 | 0.00 | 0.00 | 75 | 1015.3 |
| 20260905164121 | 91 | 10 | 3.0 | 5.0 | 0.00 | 0.00 | 0.00 | 77 | 1015.4 |
| 20260905163122 | 91 | 336 | 4.0 | 6.0 | 0.00 | 0.00 | 0.00 | 76 | 1015.3 |
| 20260905162122 | 90 | 323 | 3.0 | 5.0 | 0.00 | 0.00 | 0.00 | 78 | 1015.5 |
| 20260905161122 | 90 | 346 | 3.0 | 5.0 | 0.00 | 0.00 | 0.00 | 78 | 1015.4 |
| 20260905160122 | 89 | 338 | 4.0 | 6.0 | 0.00 | 0.00 | 0.00 | 78 | 1015.4 |
| 20260905155122 | 90 | 2 | 4.0 | 6.0 | 0.00 | 0.00 | 0.00 | 79 | 1015.4 |
| 20260905154122 | 89 | 314 | 3.0 | 6.0 | 0.00 | 0.00 | 0.00 | 77 | 1015.3 |
| 20260905153122 | 88 | 333 | 3.0 | 5.0 | 0.00 | 0.00 | 0.00 | 78 | 1015.1 |
| 20260905152122 | 89 | 331 | 3.0 | 5.0 | 0.00 | 0.00 | 0.00 | 76 | 1015.3 |
| 20260905151122 | 88 | 337 | 4.0 | 6.0 | 0.00 | 0.00 | 0.00 | 77 | 1015.0 |
| 20260905150122 | 87 | 339 | 4.0 | 7.0 | 0.00 | 0.00 | 0.00 | 76 | 1015.0 |
| 20260905145122 | 87 | 341 | 4.0 | 6.0 | 0.00 | 0.00 | 0.00 | 77 | 1015.0 |
| 20260905144122 | 87 | 326 | 4.0 | 7.0 | 0.00 | 0.00 | 0.00 | 76 | 1014.9 |
| 20260905143122 | 87 | 329 | 3.0 | 5.0 | 0.00 | 0.00 | 0.00 | 76 | 1015.0 |
| 20260905142122 | 87 | 320 | 3.0 | 5.0 | 0.00 | 0.00 | 0.00 | 78 | 1014.7 |
| 20260905141143 | 87 | 315 | 2.0 | 4.0 | 0.00 | 0.00 | 0.00 | 77 | 1014.7 |
| 20260905140121 | 87 | 307 | 2.0 | 4.0 | 0.00 | 0.00 | 0.00 | 79 | 1014.6 |
| 20260905135122 | 86 | 330 | 1.0 | 3.0 | 0.00 | 0.00 | 0.00 | 79 | 1014.6 |
| 20260905134143 | 84 | 328 | 1.0 | 3.0 | 0.00 | 0.00 | 0.00 | 81 | 1014.6 |
| 20260905133121 | 83 | 10 | 1.0 | 4.0 | 0.00 | 0.00 | 0.00 | 85 | 1014.5 |
| 20260905132122 | 84 | 3 | 2.0 | 4.0 | 0.00 | 0.00 | 0.00 | 83 | 1014.7 |
| 20260905131122 | 83 | 51 | 1.0 | 3.0 | 0.00 | 0.00 | 0.00 | 86 | 1014.7 |
| 20260905130121 | 82 | 229 | 1.0 | 3.0 | 0.00 | 0.00 | 0.00 | 87 | 1014.3 |
| 20260905125122 | 81 | 242 | 2.0 | 4.0 | 0.00 | 0.00 | 0.00 | 90 | 1014.3 |
| 20260905124122 | 80 | 238 | 2.0 | 3.0 | 0.00 | 0.00 | 0.00 | 92 | 1014.3 |
| 20260905123122 | 79 | 236 | 1.0 | 3.0 | 0.00 | 0.00 | 0.00 | 94 | 1014.2 |
| 20260905122122 | 77 | 235 | 2.0 | 2.0 | 0.00 | 0.00 | 0.00 | 99 | 1014.3 |
| 20260905121122 | 76 | 242 | 1.0 | 2.0 | 0.00 | 0.00 | 0.00 | 99 | 1014.1 |